User: anonymous   Login
Location: Turtle Rock Observatory
(36.6913°N, 81.9708°W)
Time: 02:00:26
(UTC-05:00)
Language:

TITAN 4B R/B - Orbit

View from above orbital plane
View from above orbital plane
View from above satellite
View from above satellite

Ground track
Ground track

The orbit data is extracted from the following two-line orbital elements,

1 28647U 05016B   15061.20421176 0.00004100  00000-0  25501-3 0    09
2 28647  56.9986 172.7854 0132577 256.8173 103.1826 15.02086502    03
Epoch (UTC): 02 March 2015 04:54:03
Eccentricity: 0.0132577
inclination: 56.9986°
perigee height: 468 km
apogee height: 652 km
right ascension of ascending node: 172.7854°
argument of perigee: 256.8173°
revolutions per day: 15.02086502
mean anomaly at epoch: 103.1826°
orbit number at epoch: 0

The dashed part of the orbit path shows where the satellite is in the earth's shadow,  

DLR